Hourly Weather Stirling

Today, 12 July, Sunday

Time Temperature Precipitation Wind Pressure Humidity
00:00 +8°C° 0 mm 2 mps 769 mmHg 91%
01:00 +8°C° 0 mm 2 mps 768 mmHg 91%
02:00 +8°C° 0 mm 2 mps 768 mmHg 92%
03:00 +8°C° 0 mm 2 mps 768 mmHg 92%
04:00 +8°C° 0 mm 2 mps 768 mmHg 91%
05:00 +9°C° 0 mm 2 mps 768 mmHg 89%
06:00 +10°C° 0 mm 2 mps 768 mmHg 88%
07:00 +11°C° 0 mm 3 mps 768 mmHg 83%
08:00 +13°C° 0 mm 3 mps 768 mmHg 78%
09:00 +14°C° 0 mm 3 mps 768 mmHg 73%
10:00 +16°C° 0 mm 3 mps 768 mmHg 70%
11:00 +17°C° 0 mm 4 mps 768 mmHg 68%
12:00 +19°C° 0 mm 4 mps 768 mmHg 65%
13:00 +19°C° 0 mm 4 mps 767 mmHg 65%
14:00 +19°C° 0 mm 4 mps 767 mmHg 65%
15:00 +19°C° 0 mm 4 mps 766 mmHg 65%
16:00 +19°C° 0 mm 4 mps 766 mmHg 67%
17:00 +18°C° 0 mm 4 mps 766 mmHg 69%
18:00 +18°C° 0 mm 4 mps 766 mmHg 71%
19:00 +17°C° 0 mm 4 mps 765 mmHg 75%
20:00 +14°C° 0 mm 3 mps 765 mmHg 79%
21:00 +13°C° 0 mm 3 mps 765 mmHg 83%
22:00 +13°C° 0.2 mm 3 mps 765 mmHg 86%
23:00 +13°C° 0.2 mm 3 mps 764 mmHg 90%

Tomorrow, 13 July, Monday

Time Temperature Precipitation Wind Pressure Humidity
00:00 +14°C° 0.2 mm 2 mps 764 mmHg 94%
01:00 +14°C° 0.4 mm 2 mps 764 mmHg 95%
02:00 +14°C° 0.4 mm 2 mps 763 mmHg 96%
03:00 +14°C° 0.4 mm 2 mps 762 mmHg 97%
04:00 +14°C° 0.3 mm 2 mps 762 mmHg 97%
05:00 +15°C° 0.3 mm 2 mps 762 mmHg 97%
06:00 +15°C° 0.3 mm 2 mps 762 mmHg 97%
07:00 +16°C° 0.1 mm 3 mps 762 mmHg 94%
08:00 +15°C° 0.1 mm 4 mps 761 mmHg 90%
09:00 +17°C° 0.1 mm 4 mps 761 mmHg 87%
10:00 +18°C° 0.1 mm 4 mps 761 mmHg 82%
11:00 +19°C° 0.1 mm 5 mps 761 mmHg 77%
12:00 +19°C° 0.1 mm 5 mps 761 mmHg 72%
13:00 +19°C° 0.1 mm 5 mps 761 mmHg 74%
14:00 +17°C° 0.1 mm 5 mps 761 mmHg 75%
15:00 +17°C° 0.1 mm 5 mps 760 mmHg 77%
16:00 +16°C° 0.1 mm 5 mps 760 mmHg 75%
17:00 +16°C° 0.1 mm 5 mps 760 mmHg 73%
18:00 +16°C° 0.1 mm 6 mps 760 mmHg 72%
19:00 +14°C° 0 mm 5 mps 760 mmHg 76%
20:00 +13°C° 0 mm 4 mps 761 mmHg 80%
21:00 +11°C° 0 mm 3 mps 761 mmHg 84%
22:00 +11°C° 0 mm 3 mps 761 mmHg 86%
23:00 +10°C° 0 mm 3 mps 761 mmHg 88%

Day after tomorrow, 14 July, Tuesday

Time Temperature Precipitation Wind Pressure Humidity
00:00 +10°C° 0 mm 3 mps 761 mmHg 90%
01:00 +10°C° 0 mm 3 mps 761 mmHg 91%
02:00 +10°C° 0 mm 3 mps 761 mmHg 92%
03:00 +10°C° 0 mm 3 mps 760 mmHg 93%
04:00 +10°C° 0 mm 3 mps 760 mmHg 90%
05:00 +11°C° 0 mm 3 mps 760 mmHg 88%
06:00 +12°C° 0 mm 3 mps 760 mmHg 86%
07:00 +13°C° 0 mm 3 mps 760 mmHg 81%
08:00 +14°C° 0 mm 4 mps 760 mmHg 77%
09:00 +15°C° 0 mm 4 mps 760 mmHg 73%
10:00 +17°C° 0 mm 4 mps 760 mmHg 70%
11:00 +17°C° 0 mm 4 mps 760 mmHg 67%
12:00 +18°C° 0 mm 4 mps 760 mmHg 65%
13:00 +18°C° 0.1 mm 4 mps 759 mmHg 66%
14:00 +18°C° 0.1 mm 4 mps 759 mmHg 68%
15:00 +18°C° 0.1 mm 4 mps 759 mmHg 69%
16:00 +17°C° 0 mm 4 mps 759 mmHg 74%
17:00 +16°C° 0 mm 3 mps 759 mmHg 78%
18:00 +14°C° 0 mm 3 mps 759 mmHg 82%
19:00 +14°C° 0 mm 3 mps 759 mmHg 85%
20:00 +14°C° 0 mm 2 mps 759 mmHg 88%
21:00 +14°C° 0 mm 2 mps 759 mmHg 91%
22:00 +13°C° 0 mm 2 mps 759 mmHg 92%
23:00 +13°C° 0 mm 2 mps 759 mmHg 93%

15 July, Wednesday

Time Temperature Precipitation Wind Pressure Humidity
00:00 +13°C° 0 mm 1 mps 759 mmHg 95%
01:00 +13°C° 0 mm 1 mps 759 mmHg 95%
02:00 +13°C° 0 mm 1 mps 759 mmHg 95%
03:00 +13°C° 0 mm 1 mps 759 mmHg 95%
04:00 +13°C° 0 mm 1 mps 759 mmHg 95%
05:00 +13°C° 0 mm 1 mps 759 mmHg 95%
06:00 +13°C° 0 mm 1 mps 759 mmHg 95%
07:00 +14°C° 0.1 mm 1 mps 759 mmHg 95%
08:00 +14°C° 0.1 mm 1 mps 760 mmHg 95%
09:00 +14°C° 0.1 mm 1 mps 760 mmHg 95%
10:00 +14°C° 0.1 mm 1 mps 760 mmHg 95%
11:00 +15°C° 0.1 mm 1 mps 760 mmHg 95%
12:00 +15°C° 0.1 mm 1 mps 761 mmHg 95%
13:00 +16°C° 0 mm 2 mps 761 mmHg 91%
14:00 +17°C° 0 mm 2 mps 761 mmHg 88%
15:00 +18°C° 0 mm 2 mps 761 mmHg 85%
16:00 +17°C° 0 mm 2 mps 761 mmHg 86%
17:00 +17°C° 0 mm 2 mps 761 mmHg 87%
18:00 +17°C° 0 mm 3 mps 761 mmHg 89%
19:00 +16°C° 0 mm 2 mps 762 mmHg 90%
20:00 +16°C° 0 mm 2 mps 762 mmHg 92%
21:00 +15°C° 0 mm 2 mps 762 mmHg 94%
22:00 +15°C° 0 mm 2 mps 762 mmHg 95%
23:00 +14°C° 0 mm 2 mps 762 mmHg 95%

16 July, Thursday

Time Temperature Precipitation Wind Pressure Humidity
00:00 +14°C° 0 mm 2 mps 762 mmHg 96%
01:00 +13°C° 0 mm 2 mps 763 mmHg 96%
02:00 +13°C° 0 mm 2 mps 763 mmHg 97%
03:00 +13°C° 0 mm 2 mps 763 mmHg 97%
04:00 +14°C° 0 mm 2 mps 763 mmHg 96%
05:00 +14°C° 0 mm 2 mps 763 mmHg 94%
06:00 +15°C° 0 mm 2 mps 763 mmHg 93%
07:00 +16°C° 0 mm 2 mps 763 mmHg 89%
08:00 +17°C° 0 mm 2 mps 763 mmHg 84%
09:00 +18°C° 0 mm 2 mps 764 mmHg 80%
10:00 +19°C° 0 mm 2 mps 764 mmHg 79%
11:00 +19°C° 0 mm 3 mps 764 mmHg 79%
12:00 +20°C° 0 mm 3 mps 764 mmHg 78%
13:00 +20°C° 0 mm 3 mps 764 mmHg 79%
14:00 +20°C° 0 mm 3 mps 764 mmHg 79%
15:00 +20°C° 0 mm 4 mps 764 mmHg 79%
16:00 +20°C° 0 mm 4 mps 764 mmHg 79%
17:00 +20°C° 0 mm 4 mps 764 mmHg 79%
18:00 +20°C° 0 mm 4 mps 764 mmHg 79%
19:00 +18°C° 0 mm 3 mps 764 mmHg 83%
20:00 +17°C° 0 mm 3 mps 764 mmHg 87%
21:00 +16°C° 0 mm 2 mps 764 mmHg 91%
22:00 +15°C° 0 mm 2 mps 763 mmHg 92%
23:00 +15°C° 0 mm 2 mps 763 mmHg 94%

17 July, Friday

Time Temperature Precipitation Wind Pressure Humidity
00:00 +15°C° 0 mm 2 mps 763 mmHg 95%
01:00 +15°C° 0.1 mm 2 mps 763 mmHg 95%
02:00 +15°C° 0.1 mm 2 mps 763 mmHg 94%
03:00 +16°C° 0.1 mm 3 mps 763 mmHg 94%
04:00 +16°C° 0.1 mm 3 mps 762 mmHg 94%
05:00 +16°C° 0.1 mm 3 mps 762 mmHg 95%
06:00 +16°C° 0.1 mm 3 mps 762 mmHg 95%
07:00 +16°C° 0.1 mm 3 mps 763 mmHg 94%
08:00 +17°C° 0.1 mm 3 mps 763 mmHg 92%
09:00 +17°C° 0.1 mm 3 mps 763 mmHg 91%
10:00 +18°C° 0 mm 4 mps 763 mmHg 86%
11:00 +19°C° 0 mm 4 mps 763 mmHg 81%
12:00 +20°C° 0 mm 5 mps 763 mmHg 76%
13:00 +20°C° 0.1 mm 5 mps 763 mmHg 73%
14:00 +20°C° 0.1 mm 5 mps 763 mmHg 71%
15:00 +21°C° 0.1 mm 5 mps 762 mmHg 68%
16:00 +20°C° 0 mm 5 mps 762 mmHg 70%
17:00 +20°C° 0 mm 5 mps 762 mmHg 71%
18:00 +19°C° 0 mm 5 mps 762 mmHg 72%
19:00 +18°C° 0 mm 4 mps 762 mmHg 78%
20:00 +16°C° 0 mm 3 mps 762 mmHg 84%
21:00 +14°C° 0 mm 2 mps 762 mmHg 90%
22:00 +14°C° 0 mm 2 mps 762 mmHg 91%
23:00 +14°C° 0 mm 2 mps 762 mmHg 93%
Show more